Location: Newark
(22.8000°N, 86.1800°E)
Time: 09:08:28
(UTC+00:00)

DX 1 - Visible Passes

Search period start: 06 June 2020 00:00
Search period end: 16 June 2020 00:00
Orbit: 619 x 631 km, 98.5° (Epoch: 05 June)

Date Brightness Start Highest point End Pass type
(mag) Time Alt. Az. Time Alt. Az. Time Alt. Az.
07 Jun ? 22:17:55 10° E 22:19:50 13° ENE 22:21:45 10° NE visible
08 Jun ? 22:35:08 10° ESE 22:38:27 22° ENE 22:41:47 10° NNE visible
09 Jun ? 22:53:06 10° SE 22:57:07 37° ENE 23:01:08 10° N visible
12 Jun ? 22:16:14 10° E 22:17:35 11° ENE 22:18:57 10° NE visible
13 Jun ? 22:33:05 10° ESE 22:36:12 19° ENE 22:39:19 10° NNE visible
14 Jun ? 22:50:57 10° SE 22:54:51 33° ENE 22:58:45 10° N visible
